Location: Baix
(44.7118°N, 4.7648°E)
Time: 14:40:11
(UTC+00:00)

Explorer 11/Cluster Stage 4 - Pass Details

Date: 04 December 2020
Orbit: 467 x 1258 km, 28.8° (Epoch: 14 January)

Event Time Altitude Azimuth Distance (km) Brightness Sun altitude
Rises 18:26:08 0° 221° (SW) 4,192 11.0 -25.0°
Reaches altitude 10° 18:30:11 10° 204° (SSW) 3,205 10.0 -25.7°
Maximum altitude 18:35:13 18° 166° (SSE) 2,574 9.1 -26.6°
Enters shadow 18:36:41 17° 152° (SSE) 2,598 9.0 -26.9°
Drops below altitude 10° 18:39:59 10° 127° (SE) 3,005 - -27.5°
Sets 18:43:36 0° 109° (ESE) 3,836 - -28.1°
